Hourly Data Report for September 01, 2017

All times are specified in Local Standard Time (LST). Add 1 hour to adjust for Daylight Saving Time where and when it is observed.

BAKER LAKE A
NUNAVUT

64°17'56.000" N
96°04'40.000" W
18.60 m
2300503
71926
YBK

Download Data

Hourly Data (September 2017)
Hourly Data Report for September 1, 2017
Temp Definition
°C
Dew Point Temp Definition
°C
Rel Hum Definition
%
Wind Dir Definition
10's deg

Wind Spd Definition
km/h
Visibility Definition
km
Stn Press Definition
kPa
Hmdx Definition


Wind Chill Definition


Weather Definition


TIME
00:00 Legend Double Dagger 9.8 8.8 93 36 9 24.1 99.29     Mostly Cloudy
01:00 Legend Double Dagger 9.5 8.5 93 36 9 24.1 99.25     LegendNANA
02:00 Legend Double Dagger 10.1 9.2 94 35 11 24.1 99.29     LegendNANA
03:00 Legend Double Dagger 11.0 9.9 93 36 12 24.1 99.28     Mostly Cloudy
04:00 Legend Double Dagger 11.3 9.9 91 35 16 24.1 99.24     LegendNANA
05:00 Legend Double Dagger 9.9 8.9 94 1 7 32.2 99.29     LegendNANA
06:00 Legend Double Dagger 9.8 8.9 94 36 18 32.2 99.30     Mostly Cloudy
07:00 Legend Double Dagger 10.3 9.2 92 36 20 32.2 99.28     LegendNANA
08:00 Legend Double Dagger 11.9 9.8 87 4 8 32.2 99.33     Haze
09:00 Legend Double Dagger 13.2 10.2 82 5 12 32.2 99.37     Haze
10:00 Legend Double Dagger 13.5 10.0 79 7 6 24.1 99.37     Haze
11:00 Legend Double Dagger 14.1 10.3 78 7 10 8.1 99.37     Haze
12:00 Legend Double Dagger 15.0 10.2 73 6 18 8.1 99.37     Haze
13:00 Legend Double Dagger 15.5 9.8 69 5 24 8.1 99.37     Haze
14:00 Legend Double Dagger 14.3 9.7 74 7 27 9.7 99.46     Haze
15:00 Legend Double Dagger 12.9 9.0 77 5 25 16.1 99.53     Haze
16:00 Legend Double Dagger 12.5 8.5 77 7 31 32.2 99.59     LegendNANA
17:00 Legend Double Dagger 11.8 7.7 76 7 23 32.2 99.69     LegendNANA
18:00 Legend Double Dagger 11.1 7.0 76 8 24 32.2 99.71     Cloudy
19:00 Legend Double Dagger 10.3 6.3 76 7 30 32.2 99.76     LegendNANA
20:00 Legend Double Dagger 9.8 5.9 77 7 23 32.2 99.77     LegendNANA
21:00 Legend Double Dagger 9.5 5.1 74 6 23 24.1 99.80     Cloudy
22:00 Legend Double Dagger 9.3 2.8 64 5 24 24.1 99.80     LegendNANA
23:00 Legend Double Dagger 8.5 2.2 64 5 27 24.1 99.83     LegendNANA

Notes on Data Quality.

Legend

  • E = Estimated
  • M = Missing
  • NA = Not Available
  • ‡ = Partner data that is not subject to review by the National Climate Archives
Date modified: